• în România
  • Lista ţărilor
  • Pe 7 zile
  • Temperatura apei
  • Hartă satelitară
  • Meteo pe hartă
  • Widget-uri
  • user-avatar
    Intrare

    Meteo pe oră la Kreschenskoe

    Astăzi, 15 August, Miercuri

    Timp Temperatura Precipitaţii Vânt Presiune Umiditate
    00:00 +13°C° 0 mm 2 m/s 736 mmHg 93%
    01:00 +12°C° 0 mm 2 m/s 737 mmHg 94%
    02:00 +12°C° 0 mm 2 m/s 737 mmHg 94%
    03:00 +12°C° 0 mm 2 m/s 737 mmHg 95%
    04:00 +12°C° 0 mm 2 m/s 737 mmHg 96%
    05:00 +12°C° 0 mm 2 m/s 738 mmHg 94%
    06:00 +12°C° 0 mm 3 m/s 738 mmHg 93%
    07:00 +13°C° 0 mm 3 m/s 738 mmHg 91%
    08:00 +14°C° 0 mm 4 m/s 738 mmHg 85%
    09:00 +17°C° 0 mm 4 m/s 739 mmHg 78%
    10:00 +19°C° 0 mm 4 m/s 739 mmHg 71%
    11:00 +19°C° 0 mm 4 m/s 739 mmHg 67%
    12:00 +20°C° 0 mm 5 m/s 739 mmHg 64%
    13:00 +21°C° 0 mm 5 m/s 739 mmHg 60%
    14:00 +21°C° 0 mm 5 m/s 739 mmHg 60%
    15:00 +21°C° 0 mm 5 m/s 739 mmHg 60%
    16:00 +21°C° 0 mm 4 m/s 740 mmHg 61%
    17:00 +20°C° 0 mm 3 m/s 740 mmHg 67%
    18:00 +19°C° 0 mm 3 m/s 740 mmHg 73%
    19:00 +18°C° 0 mm 2 m/s 740 mmHg 78%
    20:00 +17°C° 0 mm 2 m/s 740 mmHg 82%
    21:00 +15°C° 0 mm 2 m/s 741 mmHg 85%
    22:00 +14°C° 0 mm 1 m/s 741 mmHg 88%
    23:00 +14°C° 0 mm 1 m/s 741 mmHg 89%

    Mâine, 16 August, Joi

    Timp Temperatura Precipitaţii Vânt Presiune Umiditate
    00:00 +13°C° 0 mm 1 m/s 741 mmHg 90%
    01:00 +13°C° 0 mm 1 m/s 741 mmHg 91%
    02:00 +13°C° 0 mm 1 m/s 741 mmHg 92%
    03:00 +12°C° 0 mm 1 m/s 741 mmHg 92%
    04:00 +12°C° 0 mm 1 m/s 741 mmHg 93%
    05:00 +13°C° 0 mm 2 m/s 741 mmHg 90%
    06:00 +14°C° 0 mm 2 m/s 741 mmHg 88%
    07:00 +15°C° 0 mm 2 m/s 741 mmHg 86%
    08:00 +17°C° 0 mm 3 m/s 741 mmHg 80%
    09:00 +18°C° 0 mm 4 m/s 741 mmHg 74%
    10:00 +20°C° 0 mm 5 m/s 740 mmHg 68%
    11:00 +21°C° 0 mm 6 m/s 740 mmHg 66%
    12:00 +22°C° 0 mm 6 m/s 739 mmHg 64%
    13:00 +23°C° 0 mm 7 m/s 739 mmHg 62%
    14:00 +23°C° 0,2 mm 6 m/s 739 mmHg 66%
    15:00 +23°C° 0,2 mm 6 m/s 739 mmHg 70%
    16:00 +23°C° 0,2 mm 5 m/s 738 mmHg 74%
    17:00 +22°C° 2,1 mm 5 m/s 738 mmHg 79%
    18:00 +21°C° 2,1 mm 5 m/s 738 mmHg 83%
    19:00 +20°C° 2,1 mm 5 m/s 737 mmHg 88%
    20:00 +20°C° 1,4 mm 4 m/s 737 mmHg 90%
    21:00 +19°C° 1,4 mm 4 m/s 737 mmHg 92%
    22:00 +18°C° 1,4 mm 3 m/s 737 mmHg 94%
    23:00 +18°C° 0,1 mm 3 m/s 737 mmHg 95%

    Poimâine, 17 August, Vineri

    Timp Temperatura Precipitaţii Vânt Presiune Umiditate
    00:00 +18°C° 0,1 mm 3 m/s 737 mmHg 96%
    01:00 +17°C° 0,1 mm 3 m/s 737 mmHg 97%
    02:00 +17°C° 0,1 mm 3 m/s 737 mmHg 97%
    03:00 +17°C° 0,1 mm 3 m/s 737 mmHg 97%
    04:00 +17°C° 0,1 mm 3 m/s 738 mmHg 97%
    05:00 +15°C° 0,1 mm 4 m/s 738 mmHg 96%
    06:00 +15°C° 0,1 mm 4 m/s 738 mmHg 95%
    07:00 +14°C° 0,1 mm 4 m/s 738 mmHg 94%
    08:00 +14°C° 0 mm 4 m/s 739 mmHg 92%
    09:00 +14°C° 0 mm 4 m/s 739 mmHg 89%
    10:00 +14°C° 0 mm 4 m/s 739 mmHg 86%
    11:00 +15°C° 0 mm 4 m/s 740 mmHg 81%
    12:00 +17°C° 0 mm 4 m/s 740 mmHg 75%
    13:00 +19°C° 0 mm 4 m/s 740 mmHg 69%
    14:00 +19°C° 0 mm 4 m/s 740 mmHg 68%
    15:00 +19°C° 0 mm 4 m/s 740 mmHg 66%
    16:00 +20°C° 0 mm 4 m/s 740 mmHg 64%
    17:00 +19°C° 0 mm 3 m/s 740 mmHg 69%
    18:00 +18°C° 0 mm 3 m/s 740 mmHg 75%
    19:00 +16°C° 0 mm 2 m/s 741 mmHg 80%
    20:00 +15°C° 0 mm 2 m/s 741 mmHg 83%
    21:00 +14°C° 0 mm 2 m/s 741 mmHg 86%
    22:00 +13°C° 0 mm 2 m/s 741 mmHg 89%
    23:00 +12°C° 0 mm 2 m/s 741 mmHg 91%

    18 August, Sâmbătă

    Timp Temperatura Precipitaţii Vânt Presiune Umiditate
    00:00 +10°C° 0 mm 2 m/s 741 mmHg 92%
    01:00 +10°C° 0 mm 2 m/s 741 mmHg 93%
    02:00 +9°C° 0 mm 2 m/s 741 mmHg 94%
    03:00 +9°C° 0 mm 2 m/s 742 mmHg 94%
    04:00 +9°C° 0 mm 2 m/s 742 mmHg 95%
    05:00 +9°C° 0 mm 2 m/s 742 mmHg 92%
    06:00 +10°C° 0 mm 3 m/s 742 mmHg 89%
    07:00 +10°C° 0 mm 3 m/s 742 mmHg 86%
    08:00 +12°C° 0 mm 3 m/s 743 mmHg 80%
    09:00 +13°C° 0 mm 4 m/s 743 mmHg 74%
    10:00 +15°C° 0 mm 4 m/s 743 mmHg 68%
    11:00 +15°C° 0 mm 4 m/s 743 mmHg 66%
    12:00 +17°C° 0 mm 4 m/s 743 mmHg 63%
    13:00 +17°C° 0 mm 4 m/s 743 mmHg 61%
    14:00 +17°C° 0 mm 4 m/s 743 mmHg 62%
    15:00 +15°C° 0 mm 4 m/s 743 mmHg 63%
    16:00 +15°C° 0 mm 5 m/s 743 mmHg 64%
    17:00 +14°C° 0 mm 4 m/s 743 mmHg 67%
    18:00 +13°C° 0 mm 4 m/s 743 mmHg 71%
    19:00 +12°C° 0 mm 3 m/s 743 mmHg 75%
    20:00 +11°C° 0 mm 3 m/s 743 mmHg 78%
    21:00 +10°C° 0 mm 3 m/s 743 mmHg 81%
    22:00 +8°C° 0 mm 3 m/s 744 mmHg 85%
    23:00 +8°C° 0 mm 3 m/s 744 mmHg 87%

    19 August, Duminică

    Timp Temperatura Precipitaţii Vânt Presiune Umiditate
    00:00 +8°C° 0 mm 3 m/s 744 mmHg 89%
    01:00 +7°C° 0 mm 3 m/s 744 mmHg 91%
    02:00 +7°C° 0 mm 3 m/s 744 mmHg 91%
    03:00 +7°C° 0 mm 3 m/s 744 mmHg 92%
    04:00 +7°C° 0 mm 3 m/s 744 mmHg 93%
    05:00 +8°C° 0 mm 3 m/s 745 mmHg 89%
    06:00 +9°C° 0 mm 3 m/s 745 mmHg 86%
    07:00 +9°C° 0 mm 3 m/s 745 mmHg 83%
    08:00 +11°C° 0 mm 3 m/s 745 mmHg 76%
    09:00 +13°C° 0 mm 3 m/s 745 mmHg 69%
    10:00 +15°C° 0 mm 4 m/s 745 mmHg 63%
    11:00 +17°C° 0 mm 4 m/s 745 mmHg 60%
    12:00 +17°C° 0 mm 4 m/s 744 mmHg 57%
    13:00 +18°C° 0 mm 4 m/s 744 mmHg 54%
    14:00 +18°C° 0 mm 4 m/s 744 mmHg 55%
    15:00 +18°C° 0 mm 4 m/s 744 mmHg 55%
    16:00 +18°C° 0 mm 3 m/s 744 mmHg 56%
    17:00 +17°C° 0 mm 3 m/s 744 mmHg 62%
    18:00 +16°C° 0 mm 2 m/s 743 mmHg 68%
    19:00 +15°C° 0 mm 2 m/s 743 mmHg 74%
    20:00 +14°C° 0 mm 1 m/s 743 mmHg 77%
    21:00 +12°C° 0 mm 1 m/s 743 mmHg 80%
    22:00 +11°C° 0 mm 1 m/s 743 mmHg 84%
    23:00 +11°C° 0 mm 1 m/s 743 mmHg 84%

    20 August, Luni

    Timp Temperatura Precipitaţii Vânt Presiune Umiditate
    00:00 +9°C° 0 mm 0 m/s 743 mmHg 84%
    01:00 +9°C° 0 mm 0 m/s 743 mmHg 85%
    02:00 +10°C° 0 mm 1 m/s 743 mmHg 86%
    03:00 +10°C° 0 mm 1 m/s 743 mmHg 86%
    04:00 +9°C° 0 mm 1 m/s 743 mmHg 87%
    05:00 +10°C° 0 mm 1 m/s 743 mmHg 85%
    06:00 +11°C° 0 mm 1 m/s 743 mmHg 83%
    07:00 +12°C° 0 mm 1 m/s 743 mmHg 81%
    08:00 +14°C° 0 mm 1 m/s 743 mmHg 75%
    09:00 +16°C° 0 mm 2 m/s 743 mmHg 70%
    10:00 +18°C° 0 mm 2 m/s 743 mmHg 64%
    11:00 +19°C° 0 mm 2 m/s 742 mmHg 62%
    12:00 +20°C° 0 mm 3 m/s 742 mmHg 59%
    13:00 +21°C° 0 mm 3 m/s 742 mmHg 57%
    14:00 +21°C° 0,1 mm 3 m/s 742 mmHg 59%
    15:00 +21°C° 0,1 mm 3 m/s 742 mmHg 61%
    16:00 +21°C° 0,1 mm 3 m/s 742 mmHg 63%
    17:00 +20°C° 0 mm 3 m/s 741 mmHg 68%
    18:00 +19°C° 0 mm 2 m/s 741 mmHg 73%
    19:00 +17°C° 0 mm 2 m/s 741 mmHg 78%
    20:00 +16°C° 0 mm 2 m/s 741 mmHg 81%
    21:00 +15°C° 0 mm 2 m/s 741 mmHg 85%
    22:00 +14°C° 0 mm 2 m/s 741 mmHg 88%
    23:00 +13°C° 0 mm 2 m/s 741 mmHg 89%
    Arată mai mult